{"data":{"norad_id":64506,"intl_designator":"2025-134G","name":"KUIPER-00046","alt_names":[],"object_type":"PAYLOAD","status":"ACTIVE","operator":null,"country":"US","launch_date":"2025-06-23","launch_site_code":"AFETR","launch_vehicle":null,"mission":null,"orbit_class":"UNKNOWN","rcs_meters":null,"size_class":null,"mass_kg":null,"dimensions":null,"purposes":[],"wikipedia_slug":null,"has_3d_model":false,"image_url":null,"decayed_at":null,"tle_current":{"epoch":"2026-09-21T17:25:35.950656Z","epoch_age_seconds":75864,"freshness":"FRESH","line1":"1 64506U 25134G   26264.72611054  .00001344  00000+0  20525-3 0  9990","line2":"2 64506  51.8993  96.1471 0000933 120.8653 239.2402 14.79926458 68962","mean_motion":14.79926458,"eccentricity":9.33e-5,"inclination_deg":51.8993,"raan_deg":96.1471,"arg_perigee_deg":120.8653,"mean_anomaly_deg":239.2402,"bstar":0.00020525,"rev_number":6896,"period_min":97.302132292847,"perigee_km":628.90246294087,"apogee_km":630.21009850705,"semimajor_km":7007.693280724,"source":"CELESTRAK","updated_at":"2026-09-22T09:00:29.807338Z"}}}